Volver al catálogo

CZ-2D R/B

ActivoSSO
NORAD 68379·ROCKET BODY·🇨🇳 China

Lanzado Mar 25, 2026 desde Taiyuan Satellite Launch Center

Loading…

Próximos Pases (próximas 24 horas)

TLE

ActualizadoSource: Space-Track

Época: Sep 13, 2026, 22:19 UTC

1 68379U 26062C   26256.93027820  .00005834  00000-0  17531-3 0  9991
2 68379  97.4964 267.3994 0049493 166.7048 193.5512 15.33591511 26340

Sigue CZ-2D R/B en tiempo real con AllMySat

Download on the App Store